Location: Tauranga
(37.6860°S, 176.1670°E)
Time: 03:38:26
(UTC+13:00)

ISS - Visible Passes

Search period start: 22 March 2019 00:00
Search period end: 01 April 2019 00:00
Orbit: 406 x 411 km, 51.6° (Epoch: 21 March)

Date Brightness Start Highest point End Pass type
(mag) Time Alt. Az. Time Alt. Az. Time Alt. Az.
25 Mar -1.2 06:39:24 10° N 06:41:56 20° NE 06:44:30 10° E visible
26 Mar -0.6 05:50:26 10° NE 05:51:03 10° NE 05:51:39 10° ENE visible
27 Mar -3.2 06:32:47 10° NW 06:36:03 57° NE 06:39:22 10° ESE visible
28 Mar -2.1 05:44:03 24° NNE 05:45:02 28° NE 05:47:57 10° ESE visible
29 Mar -0.5 04:55:31 12° E 04:55:31 12° E 04:55:59 10° E visible
29 Mar -3.5 06:28:17 20° WNW 06:30:18 51° SW 06:33:36 10° SE visible
30 Mar -3.3 05:39:37 61° ESE 05:39:37 61° ESE 05:42:30 10° SE visible
31 Mar -0.3 04:50:49 12° ESE 04:50:49 12° ESE 04:51:11 10° ESE visible
31 Mar -2.3 06:23:34 20° WSW 06:24:40 24° SSW 06:27:28 10° SSE visible
